Time,TemperatureF,DewpointF,PressureIn,WindDirection,WindDirectionDegrees,WindSpeedMPH,WindSpeedGustMPH,Humidity,HourlyPrecipIn,Conditions,Clouds,dailyrainin,SoftwareType,DateUTC
2013-10-28 00:02:00,42.4,11.7,29.91,West,265,0.0,0.0,28,0.00,,---,0.00,VWS V12.07,2013-10-28 04:02:00,
2013-10-28 00:05:00,42.4,11.7,29.91,West,265,0.0,0.0,28,0.00,,---,0.00,VWS V12.07,2013-10-28 04:05:00,
2013-10-28 00:11:00,42.4,11.7,29.91,West,264,0.0,0.0,28,0.00,,---,0.00,VWS V12.07,2013-10-28 04:11:00,
2013-10-28 00:14:00,42.3,11.5,29.91,West,263,3.1,3.1,28,0.00,,---,0.00,VWS V12.07,2013-10-28 04:14:00,
2013-10-28 00:20:00,42.1,11.3,29.91,WSW,246,2.7,4.0,28,0.00,,---,0.00,VWS V12.07,2013-10-28 04:20:00,
2013-10-28 00:26:00,42.1,11.3,29.91,West,280,0.0,4.0,28,0.00,,---,0.00,VWS V12.07,2013-10-28 04:26:00,
2013-10-28 00:29:00,42.1,11.3,29.91,SW,232,0.0,4.0,28,0.00,,---,0.00,VWS V12.07,2013-10-28 04:29:00,
2013-10-28 00:35:00,41.9,11.2,29.91,WSW,249,0.0,3.1,28,0.00,,---,0.00,VWS V12.07,2013-10-28 04:35:00,
2013-10-28 00:41:00,41.9,11.2,29.91,WSW,247,0.0,3.6,28,0.00,,---,0.00,VWS V12.07,2013-10-28 04:41:00,
2013-10-28 00:47:00,41.9,11.2,29.91,WSW,247,0.0,2.2,28,0.00,,---,0.00,VWS V12.07,2013-10-28 04:47:00,
2013-10-28 00:53:00,41.7,11.0,29.91,SW,232,0.0,4.0,28,0.00,,---,0.00,VWS V12.07,2013-10-28 04:53:00,
2013-10-28 00:59:00,41.7,11.0,29.91,SW,232,0.0,4.0,28,0.00,,---,0.00,VWS V12.07,2013-10-28 04:59:00,
2013-10-28 01:05:00,41.7,11.0,29.91,WSW,250,0.0,2.7,28,0.00,,---,0.00,VWS V12.07,2013-10-28 05:05:00,
2013-10-28 01:11:00,41.5,10.9,29.91,WSW,250,0.0,2.7,28,0.00,,---,0.00,VWS V12.07,2013-10-28 05:11:00,
2013-10-28 01:17:00,41.2,10.6,29.91,WSW,251,3.1,3.1,28,0.00,,---,0.00,VWS V12.07,2013-10-28 05:17:00,
2013-10-28 01:23:00,41.0,10.4,29.91,WNW,283,2.2,4.0,28,0.00,,---,0.00,VWS V12.07,2013-10-28 05:23:00,
2013-10-28 01:28:00,41.0,10.4,29.91,WSW,244,0.0,4.0,28,0.00,,---,0.00,VWS V12.07,2013-10-28 05:28:00,
2013-10-28 01:34:00,40.8,11.0,29.91,SW,223,0.0,3.6,29,0.00,,---,0.00,VWS V12.07,2013-10-28 05:34:00,
2013-10-28 01:40:00,40.8,11.0,29.91,West,272,2.7,3.6,29,0.00,,---,0.00,VWS V12.07,2013-10-28 05:40:00,
2013-10-28 01:46:00,40.6,10.9,29.91,West,265,0.0,0.0,29,0.00,,---,0.00,VWS V12.07,2013-10-28 05:46:00,
2013-10-28 01:52:00,40.6,10.9,29.91,West,265,0.0,2.7,29,0.00,,---,0.00,VWS V12.07,2013-10-28 05:52:00,
2013-10-28 01:58:00,40.6,10.9,29.91,WSW,249,0.0,4.0,29,0.00,,---,0.00,VWS V12.07,2013-10-28 05:58:00,
2013-10-28 02:03:00,40.5,10.7,29.91,SW,227,3.1,3.1,29,0.00,,---,0.00,VWS V12.07,2013-10-28 06:03:00,
2013-10-28 02:09:00,40.3,10.6,29.91,SSW,211,2.2,4.0,29,0.00,,---,0.00,VWS V12.07,2013-10-28 06:09:00,
2013-10-28 02:15:00,40.3,10.6,29.91,WSW,251,4.0,4.0,29,0.00,,---,0.00,VWS V12.07,2013-10-28 06:15:00,
2013-10-28 02:22:00,39.9,10.2,29.91,West,263,3.6,4.0,29,0.00,,---,0.00,VWS V12.07,2013-10-28 06:22:00,
2013-10-28 02:28:00,39.9,11.0,29.91,WSW,256,0.0,4.0,30,0.00,,---,0.00,VWS V12.07,2013-10-28 06:28:00,
2013-10-28 02:34:00,39.7,10.9,29.91,WSW,257,0.0,2.7,30,0.00,,---,0.00,VWS V12.07,2013-10-28 06:34:00,
2013-10-28 02:40:00,39.7,10.9,29.91,WSW,256,0.0,3.1,30,0.00,,---,0.00,VWS V12.07,2013-10-28 06:40:00,
2013-10-28 02:46:00,39.6,10.7,29.91,SW,233,0.0,3.6,30,0.00,,---,0.00,VWS V12.07,2013-10-28 06:46:00,
2013-10-28 02:52:00,39.4,10.5,29.91,WSW,244,0.0,4.0,30,0.00,,---,0.00,VWS V12.07,2013-10-28 06:52:00,
2013-10-28 02:58:00,39.4,10.5,29.94,SW,231,0.0,4.0,30,0.00,,---,0.00,VWS V12.07,2013-10-28 06:58:00,
2013-10-28 03:04:00,39.4,10.5,29.94,West,274,0.0,3.6,30,0.00,,---,0.00,VWS V12.07,2013-10-28 07:04:00,
2013-10-28 03:10:00,39.4,10.5,29.91,West,264,0.0,3.6,30,0.00,,---,0.00,VWS V12.07,2013-10-28 07:10:00,
2013-10-28 03:16:00,39.2,10.4,29.91,West,263,0.0,0.0,30,0.00,,---,0.00,VWS V12.07,2013-10-28 07:16:00,
2013-10-28 03:22:00,39.0,11.0,29.91,West,263,0.0,0.0,31,0.00,,---,0.00,VWS V12.07,2013-10-28 07:22:00,
2013-10-28 03:28:00,38.8,10.8,29.91,West,263,0.0,0.0,31,0.00,,---,0.00,VWS V12.07,2013-10-28 07:28:00,
2013-10-28 03:34:00,38.8,10.8,29.91,West,263,0.0,0.0,31,0.00,,---,0.00,VWS V12.07,2013-10-28 07:34:00,
2013-10-28 03:40:00,38.8,10.8,29.91,West,263,0.0,0.0,31,0.00,,---,0.00,VWS V12.07,2013-10-28 07:40:00,
2013-10-28 03:46:00,38.8,10.8,29.91,West,263,0.0,0.0,31,0.00,,---,0.00,VWS V12.07,2013-10-28 07:46:00,
2013-10-28 03:52:00,38.7,10.6,29.91,West,270,0.0,4.0,31,0.00,,---,0.00,VWS V12.07,2013-10-28 07:52:00,
2013-10-28 03:58:00,38.7,10.6,29.91,West,269,0.0,4.0,31,0.00,,---,0.00,VWS V12.07,2013-10-28 07:58:00,
2013-10-28 04:04:00,38.7,11.4,29.91,West,266,0.0,0.0,32,0.00,,---,0.00,VWS V12.07,2013-10-28 08:04:00,
2013-10-28 04:09:00,38.3,11.0,29.91,West,266,0.0,0.0,32,0.00,,---,0.00,VWS V12.07,2013-10-28 08:09:00,
2013-10-28 04:15:00,38.1,10.9,29.91,West,266,0.0,0.0,32,0.00,,---,0.00,VWS V12.07,2013-10-28 08:15:00,
2013-10-28 04:21:00,37.9,10.7,29.91,West,266,0.0,0.0,32,0.00,,---,0.00,VWS V12.07,2013-10-28 08:21:00,
2013-10-28 04:27:00,38.1,10.9,29.94,WSW,249,0.0,3.6,32,0.00,,---,0.00,VWS V12.07,2013-10-28 08:27:00,
2013-10-28 04:33:00,38.1,11.6,29.94,West,266,0.0,0.0,33,0.00,,---,0.00,VWS V12.07,2013-10-28 08:33:00,
2013-10-28 04:39:00,38.1,11.6,29.94,WSW,245,0.0,3.1,33,0.00,,---,0.00,VWS V12.07,2013-10-28 08:39:00,
2013-10-28 04:45:00,38.1,11.6,29.94,SW,230,0.0,0.0,33,0.00,,---,0.00,VWS V12.07,2013-10-28 08:45:00,
2013-10-28 04:51:00,38.1,11.6,29.94,West,270,3.6,5.4,33,0.00,,---,0.00,VWS V12.07,2013-10-28 08:51:00,
2013-10-28 04:57:00,38.1,12.2,29.94,WSW,251,2.2,5.4,34,0.00,,---,0.00,VWS V12.07,2013-10-28 08:57:00,
2013-10-28 05:03:00,38.1,12.2,29.94,WSW,257,0.0,3.6,34,0.00,,---,0.00,VWS V12.07,2013-10-28 09:03:00,
2013-10-28 05:09:00,38.1,12.2,29.94,WSW,248,2.7,4.9,34,0.00,,---,0.00,VWS V12.07,2013-10-28 09:09:00,
2013-10-28 05:15:00,38.1,12.2,29.94,WSW,241,0.0,0.0,34,0.00,,---,0.00,VWS V12.07,2013-10-28 09:15:00,
2013-10-28 05:21:00,38.1,12.9,29.94,WSW,246,0.0,4.0,35,0.00,,---,0.00,VWS V12.07,2013-10-28 09:21:00,
2013-10-28 05:28:00,38.1,12.9,29.94,WSW,251,4.9,4.9,35,0.00,,---,0.00,VWS V12.07,2013-10-28 09:28:00,
2013-10-28 05:34:00,38.1,12.9,29.94,WSW,253,0.0,4.0,35,0.00,,---,0.00,VWS V12.07,2013-10-28 09:34:00,
2013-10-28 05:40:00,38.1,12.9,29.94,SW,217,0.0,4.9,35,0.00,,---,0.00,VWS V12.07,2013-10-28 09:40:00,
2013-10-28 05:46:00,37.9,12.7,29.94,SW,217,0.0,0.0,35,0.00,,---,0.00,VWS V12.07,2013-10-28 09:46:00,
2013-10-28 05:52:00,37.9,12.7,29.94,SW,216,0.0,0.0,35,0.00,,---,0.00,VWS V12.07,2013-10-28 09:52:00,
2013-10-28 05:58:00,37.9,12.7,29.94,SW,217,0.0,0.0,35,0.00,,---,0.00,VWS V12.07,2013-10-28 09:58:00,
2013-10-28 06:04:00,37.8,12.6,29.94,SW,216,0.0,0.0,35,0.00,,---,0.00,VWS V12.07,2013-10-28 10:04:00,
2013-10-28 06:10:00,37.4,12.3,29.94,SW,216,0.0,0.0,35,0.00,,---,0.00,VWS V12.07,2013-10-28 10:10:00,
2013-10-28 06:16:00,37.2,12.1,29.94,SW,217,0.0,0.0,35,0.00,,---,0.00,VWS V12.07,2013-10-28 10:16:00,
2013-10-28 06:22:00,37.0,12.6,29.94,SW,216,0.0,0.0,36,0.00,,---,0.00,VWS V12.07,2013-10-28 10:22:00,
2013-10-28 06:28:00,36.9,12.4,29.94,SW,217,0.0,0.0,36,0.00,,---,0.00,VWS V12.07,2013-10-28 10:28:00,
2013-10-28 06:34:00,36.9,12.4,29.94,SW,236,0.0,0.0,36,0.00,,---,0.00,VWS V12.07,2013-10-28 10:34:00,
2013-10-28 06:40:00,36.9,13.0,29.94,SW,236,0.0,0.0,37,0.00,,---,0.00,VWS V12.07,2013-10-28 10:40:00,
2013-10-28 06:46:00,37.0,13.2,29.94,SW,236,0.0,0.0,37,0.00,,---,0.00,VWS V12.07,2013-10-28 10:46:00,
2013-10-28 06:52:00,37.0,13.2,29.94,SW,235,0.0,0.0,37,0.00,,---,0.00,VWS V12.07,2013-10-28 10:52:00,
2013-10-28 06:58:00,37.0,13.2,29.94,West,267,0.0,3.1,37,0.00,,---,0.00,VWS V12.07,2013-10-28 10:58:00,
2013-10-28 07:04:00,37.0,13.2,29.94,West,267,0.0,0.0,37,0.00,,---,0.00,VWS V12.07,2013-10-28 11:04:00,
2013-10-28 07:10:00,37.0,13.8,29.94,West,267,0.0,0.0,38,0.00,,---,0.00,VWS V12.07,2013-10-28 11:10:00,
2013-10-28 07:16:00,37.0,13.8,29.94,SW,223,0.0,0.0,38,0.00,,---,0.00,VWS V12.07,2013-10-28 11:16:00,
2013-10-28 07:22:00,37.0,14.4,29.94,WSW,248,0.0,0.0,39,0.00,,---,0.00,VWS V12.07,2013-10-28 11:22:00,
2013-10-28 07:27:00,37.2,14.6,29.97,WSW,243,0.0,3.6,39,0.00,,---,0.00,VWS V12.07,2013-10-28 11:27:00,
2013-10-28 07:34:00,37.4,14.7,29.97,WSW,240,2.7,4.9,39,0.00,,---,0.00,VWS V12.07,2013-10-28 11:34:00,
2013-10-28 07:40:00,37.6,14.9,29.97,WSW,248,4.0,4.9,39,0.00,,---,0.00,VWS V12.07,2013-10-28 11:40:00,
2013-10-28 07:46:00,37.8,15.0,29.97,WSW,245,0.0,7.2,39,0.00,,---,0.00,VWS V12.07,2013-10-28 11:46:00,
2013-10-28 07:52:00,37.9,15.2,29.97,West,259,2.2,7.2,39,0.00,,---,0.00,VWS V12.07,2013-10-28 11:52:00,
2013-10-28 07:57:00,38.1,15.4,29.97,West,259,3.1,7.2,39,0.00,,---,0.00,VWS V12.07,2013-10-28 11:57:00,
2013-10-28 08:03:00,38.1,15.4,29.97,WSW,246,2.2,3.1,39,0.00,,---,0.00,VWS V12.07,2013-10-28 12:03:00,
2013-10-28 08:09:00,38.5,15.7,29.97,WSW,238,3.1,3.1,39,0.00,,---,0.00,VWS V12.07,2013-10-28 12:09:00,
2013-10-28 08:15:00,38.7,15.9,29.97,WSW,255,2.7,2.7,39,0.00,,---,0.00,VWS V12.07,2013-10-28 12:15:00,
2013-10-28 08:21:00,39.0,16.2,29.97,SW,232,3.6,6.3,39,0.00,,---,0.00,VWS V12.07,2013-10-28 12:21:00,
2013-10-28 08:27:00,39.4,16.5,29.97,SW,219,2.2,6.3,39,0.00,,---,0.00,VWS V12.07,2013-10-28 12:27:00,
2013-10-28 08:33:00,39.7,16.8,29.97,WSW,240,3.1,5.8,39,0.00,,---,0.00,VWS V12.07,2013-10-28 12:33:00,
2013-10-28 08:39:00,40.1,16.5,29.97,West,280,3.6,5.8,38,0.00,,---,0.00,VWS V12.07,2013-10-28 12:39:00,
2013-10-28 08:45:00,40.6,16.4,29.97,WSW,257,4.0,4.0,37,0.00,,---,0.00,VWS V12.07,2013-10-28 12:45:00,
2013-10-28 08:51:00,41.0,15.5,29.97,West,261,3.6,8.1,35,0.00,,---,0.00,VWS V12.07,2013-10-28 12:51:00,
2013-10-28 08:57:00,41.4,15.1,29.97,West,261,4.9,8.7,34,0.00,,---,0.00,VWS V12.07,2013-10-28 12:57:00,
2013-10-28 09:03:00,41.9,14.9,29.97,WSW,250,2.7,5.4,33,0.00,,---,0.00,VWS V12.07,2013-10-28 13:03:00,
2013-10-28 09:09:00,42.3,14.5,29.97,West,262,4.0,7.6,32,0.00,,---,0.00,VWS V12.07,2013-10-28 13:09:00,
2013-10-28 09:15:00,42.6,14.8,29.97,SW,217,3.6,3.6,32,0.00,,---,0.00,VWS V12.07,2013-10-28 13:15:00,
2013-10-28 09:21:00,43.2,14.6,29.97,NNW,342,3.6,8.7,31,0.00,,---,0.00,VWS V12.07,2013-10-28 13:21:00,
2013-10-28 09:27:00,43.9,14.5,29.97,WSW,244,4.0,8.7,30,0.00,,---,0.00,VWS V12.07,2013-10-28 13:27:00,
2013-10-28 09:33:00,45.0,14.6,29.97,WSW,243,5.4,8.1,29,0.00,,---,0.00,VWS V12.07,2013-10-28 13:33:00,
2013-10-28 09:39:00,46.6,15.2,29.97,WSW,243,8.7,8.7,28,0.00,,---,0.00,VWS V12.07,2013-10-28 13:39:00,
2013-10-28 09:45:00,48.4,16.0,29.97,West,265,2.7,2.7,27,0.00,,---,0.00,VWS V12.07,2013-10-28 13:45:00,
2013-10-28 09:50:00,49.5,16.9,29.97,SW,219,6.3,6.3,27,0.00,,---,0.00,VWS V12.07,2013-10-28 13:50:00,
2013-10-28 09:56:00,50.7,17.1,29.97,WSW,246,3.1,11.0,26,0.00,,---,0.00,VWS V12.07,2013-10-28 13:56:00,
2013-10-28 10:02:00,51.8,18.0,29.97,SSW,204,4.0,8.3,26,0.00,,---,0.00,VWS V12.07,2013-10-28 14:02:00,
2013-10-28 10:08:00,52.5,15.8,29.97,West,271,4.9,10.1,23,0.00,,---,0.00,VWS V12.07,2013-10-28 14:08:00,
2013-10-28 10:14:00,53.4,16.6,29.97,SSW,205,5.4,10.1,23,0.00,,---,0.00,VWS V12.07,2013-10-28 14:14:00,
2013-10-28 10:22:00,54.3,17.3,29.97,WSW,256,5.4,10.5,23,0.00,,---,0.00,VWS V12.07,2013-10-28 14:22:00,
2013-10-28 10:28:00,54.9,17.8,29.97,WSW,248,4.9,10.5,23,0.00,,---,0.00,VWS V12.07,2013-10-28 14:28:00,
2013-10-28 10:34:00,55.6,15.2,29.97,SSW,208,2.7,8.1,20,0.00,,---,0.00,VWS V12.07,2013-10-28 14:34:00,
2013-10-28 10:40:00,56.1,15.6,29.97,West,280,5.4,10.5,20,0.00,,---,0.00,VWS V12.07,2013-10-28 14:40:00,
2013-10-28 10:46:00,56.8,16.2,29.97,West,272,7.2,7.2,20,0.00,,---,0.00,VWS V12.07,2013-10-28 14:46:00,
2013-10-28 10:52:00,57.2,15.3,29.97,SW,224,8.3,11.9,19,0.00,,---,0.00,VWS V12.07,2013-10-28 14:52:00,
2013-10-28 10:58:00,57.4,15.5,29.97,West,263,7.6,11.9,19,0.00,,---,0.00,VWS V12.07,2013-10-28 14:58:00,
2013-10-28 11:04:00,57.6,15.6,29.97,WSW,252,6.3,8.1,19,0.00,,---,0.00,VWS V12.07,2013-10-28 15:04:00,
2013-10-28 11:10:00,57.6,15.6,29.97,WNW,283,6.3,11.0,19,0.00,,---,0.00,VWS V12.07,2013-10-28 15:10:00,
2013-10-28 11:16:00,57.6,15.6,29.97,West,277,8.1,8.1,19,0.00,,---,0.00,VWS V12.07,2013-10-28 15:16:00,
2013-10-28 11:22:00,57.7,15.8,29.97,WSW,253,5.8,8.7,19,0.00,,---,0.00,VWS V12.07,2013-10-28 15:22:00,
2013-10-28 11:28:00,57.7,15.8,29.97,West,259,5.4,8.7,19,0.00,,---,0.00,VWS V12.07,2013-10-28 15:28:00,
2013-10-28 11:34:00,57.9,15.9,29.97,West,276,8.3,10.5,19,0.00,,---,0.00,VWS V12.07,2013-10-28 15:34:00,
2013-10-28 11:40:00,57.9,15.9,29.94,NNW,331,5.4,10.5,19,0.00,,---,0.00,VWS V12.07,2013-10-28 15:40:00,
2013-10-28 11:46:00,57.9,15.9,29.94,SW,214,6.3,12.8,19,0.00,,---,0.00,VWS V12.07,2013-10-28 15:46:00,
2013-10-28 11:52:00,57.9,15.9,29.94,WSW,246,5.8,15.0,19,0.00,,---,0.00,VWS V12.07,2013-10-28 15:52:00,
2013-10-28 11:58:00,57.6,15.6,29.94,WNW,301,3.1,15.0,19,0.00,,---,0.00,VWS V12.07,2013-10-28 15:58:00,
2013-10-28 12:05:00,57.0,16.4,29.94,NW,323,4.0,9.6,20,0.00,,---,0.00,VWS V12.07,2013-10-28 16:05:00,
2013-10-28 12:11:00,56.8,16.2,29.94,SW,219,8.1,11.0,20,0.00,,---,0.00,VWS V12.07,2013-10-28 16:11:00,
2013-10-28 12:19:00,56.7,16.1,29.94,WSW,241,10.1,10.5,20,0.00,,---,0.00,VWS V12.07,2013-10-28 16:19:00,
2013-10-28 12:25:00,56.7,16.1,29.94,SW,225,5.8,13.2,20,0.00,,---,0.00,VWS V12.07,2013-10-28 16:25:00,
2013-10-28 12:31:00,56.7,16.1,29.94,WSW,239,8.3,11.0,20,0.00,,---,0.00,VWS V12.07,2013-10-28 16:31:00,
2013-10-28 12:37:00,56.7,16.1,29.94,WSW,248,8.3,11.9,20,0.00,,---,0.00,VWS V12.07,2013-10-28 16:37:00,
2013-10-28 12:43:00,56.8,16.2,29.94,SSW,210,2.7,11.9,20,0.00,,---,0.00,VWS V12.07,2013-10-28 16:43:00,
2013-10-28 12:49:00,57.2,15.3,29.94,WSW,248,6.3,11.4,19,0.00,,---,0.00,VWS V12.07,2013-10-28 16:49:00,
2013-10-28 12:55:00,57.4,15.5,29.94,WSW,251,8.1,11.4,19,0.00,,---,0.00,VWS V12.07,2013-10-28 16:55:00,
2013-10-28 13:01:00,57.9,15.9,29.94,SW,224,4.0,8.1,19,0.00,,---,0.00,VWS V12.07,2013-10-28 17:01:00,
2013-10-28 13:07:00,58.3,16.2,29.94,SW,218,6.3,11.0,19,0.00,,---,0.00,VWS V12.07,2013-10-28 17:07:00,
2013-10-28 13:13:00,58.5,16.4,29.91,WSW,238,6.3,11.0,19,0.00,,---,0.00,VWS V12.07,2013-10-28 17:13:00,
2013-10-28 13:20:00,59.2,17.0,29.91,SE,145,3.1,8.3,19,0.00,,---,0.00,VWS V12.07,2013-10-28 17:20:00,
2013-10-28 13:26:00,59.7,17.4,29.91,South,171,11.0,11.0,19,0.00,,---,0.00,VWS V12.07,2013-10-28 17:26:00,
2013-10-28 13:32:00,59.9,17.6,29.91,West,278,5.4,8.7,19,0.00,,---,0.00,VWS V12.07,2013-10-28 17:32:00,
2013-10-28 13:38:00,60.1,17.7,29.91,NW,310,2.7,12.8,19,0.00,,---,0.00,VWS V12.07,2013-10-28 17:38:00,
2013-10-28 13:44:00,60.3,17.9,29.91,SSW,193,7.2,13.2,19,0.00,,---,0.00,VWS V12.07,2013-10-28 17:44:00,
2013-10-28 13:50:00,60.3,17.9,29.91,WSW,254,10.1,10.5,19,0.00,,---,0.00,VWS V12.07,2013-10-28 17:50:00,
2013-10-28 13:56:00,60.1,17.7,29.91,North,0,6.3,11.0,19,0.00,,---,0.00,VWS V12.07,2013-10-28 17:56:00,
2013-10-28 14:03:00,59.9,17.6,29.91,SSW,202,2.7,12.3,19,0.00,,---,0.00,VWS V12.07,2013-10-28 18:03:00,
2013-10-28 14:09:00,59.9,17.6,29.91,WNW,288,6.7,12.3,19,0.00,,---,0.00,VWS V12.07,2013-10-28 18:09:00,
2013-10-28 14:15:00,59.9,17.6,29.94,NNE,23,5.4,6.3,19,0.00,,---,0.00,VWS V12.07,2013-10-28 18:15:00,
2013-10-28 14:21:00,59.7,17.4,29.94,South,173,0.0,6.3,19,0.00,,---,0.00,VWS V12.07,2013-10-28 18:21:00,
2013-10-28 14:27:00,59.2,17.0,29.94,SW,218,6.3,10.5,19,0.00,,---,0.00,VWS V12.07,2013-10-28 18:27:00,
2013-10-28 14:33:00,58.5,16.4,29.94,WSW,251,3.6,10.1,19,0.00,,---,0.00,VWS V12.07,2013-10-28 18:33:00,
2013-10-28 14:39:00,58.5,16.4,29.94,WSW,240,8.1,14.1,19,0.00,,---,0.00,VWS V12.07,2013-10-28 18:39:00,
2013-10-28 14:45:00,59.2,17.0,29.94,NW,321,4.0,5.8,19,0.00,,---,0.00,VWS V12.07,2013-10-28 18:45:00,
2013-10-28 14:51:00,59.9,17.6,29.94,SW,218,6.3,8.7,19,0.00,,---,0.00,VWS V12.07,2013-10-28 18:51:00,
2013-10-28 14:56:00,59.9,17.6,29.94,West,281,8.3,10.1,19,0.00,,---,0.00,VWS V12.07,2013-10-28 18:56:00,
2013-10-28 15:02:00,59.2,17.0,29.94,WSW,252,4.9,8.1,19,0.00,,---,0.00,VWS V12.07,2013-10-28 19:02:00,
2013-10-28 15:08:00,58.6,16.5,29.94,SW,232,7.6,11.0,19,0.00,,---,0.00,VWS V12.07,2013-10-28 19:08:00,
2013-10-28 15:14:00,58.5,16.4,29.94,ESE,119,4.9,13.2,19,0.00,,---,0.00,VWS V12.07,2013-10-28 19:14:00,
2013-10-28 15:20:00,58.3,16.2,29.94,West,274,7.2,8.7,19,0.00,,---,0.00,VWS V12.07,2013-10-28 19:20:00,
2013-10-28 15:26:00,58.1,16.1,29.97,WNW,292,3.1,11.0,19,0.00,,---,0.00,VWS V12.07,2013-10-28 19:26:00,
2013-10-28 15:32:00,58.1,16.1,29.97,SW,229,5.4,10.5,19,0.00,,---,0.00,VWS V12.07,2013-10-28 19:32:00,
2013-10-28 15:38:00,57.4,15.5,29.97,SSW,197,3.1,10.5,19,0.00,,---,0.00,VWS V12.07,2013-10-28 19:38:00,
2013-10-28 15:44:00,57.4,15.5,29.97,South,190,4.9,10.5,19,0.00,,---,0.00,VWS V12.07,2013-10-28 19:44:00,
2013-10-28 15:50:00,57.4,15.5,29.97,SE,137,3.1,4.9,19,0.00,,---,0.00,VWS V12.07,2013-10-28 19:50:00,
2013-10-28 15:56:00,57.6,15.6,29.97,West,260,11.0,11.0,19,0.00,,---,0.00,VWS V12.07,2013-10-28 19:56:00,
2013-10-28 16:04:00,57.9,15.9,29.97,NNE,20,2.7,6.3,19,0.00,,---,0.00,VWS V12.07,2013-10-28 20:04:00,
2013-10-28 16:10:00,58.3,16.2,29.97,SSW,196,4.0,12.8,19,0.00,,---,0.00,VWS V12.07,2013-10-28 20:10:00,
2013-10-28 16:16:00,58.3,16.2,29.97,WNW,299,3.1,5.8,19,0.00,,---,0.00,VWS V12.07,2013-10-28 20:16:00,
2013-10-28 16:22:00,58.3,16.2,29.97,WNW,290,3.1,8.7,19,0.00,,---,0.00,VWS V12.07,2013-10-28 20:22:00,
2013-10-28 16:28:00,58.5,16.4,29.97,WSW,242,2.7,10.5,19,0.00,,---,0.00,VWS V12.07,2013-10-28 20:28:00,
2013-10-28 16:34:00,58.1,16.1,29.97,West,277,3.1,8.1,19,0.00,,---,0.00,VWS V12.07,2013-10-28 20:34:00,
2013-10-28 16:41:00,57.9,15.9,29.97,South,175,3.1,8.1,19,0.00,,---,0.00,VWS V12.07,2013-10-28 20:41:00,
2013-10-28 16:47:00,57.9,15.9,29.97,WSW,251,2.7,3.6,19,0.00,,---,0.00,VWS V12.07,2013-10-28 20:47:00,
2013-10-28 16:53:00,57.9,15.9,29.97,SSW,212,0.0,4.9,19,0.00,,---,0.00,VWS V12.07,2013-10-28 20:53:00,
2013-10-28 16:59:00,57.9,15.9,29.97,SSW,202,4.0,6.3,19,0.00,,---,0.00,VWS V12.07,2013-10-28 20:59:00,
2013-10-28 17:05:00,57.7,15.8,29.97,WSW,247,4.0,6.3,19,0.00,,---,0.00,VWS V12.07,2013-10-28 21:05:00,
2013-10-28 17:11:00,57.4,15.5,30.00,West,259,5.4,10.5,19,0.00,,---,0.00,VWS V12.07,2013-10-28 21:11:00,
2013-10-28 17:17:00,57.2,15.3,30.00,West,266,8.1,8.1,19,0.00,,---,0.00,VWS V12.07,2013-10-28 21:17:00,
2013-10-28 17:23:00,56.8,16.2,30.00,NE,56,0.0,8.1,20,0.00,,---,0.00,VWS V12.07,2013-10-28 21:23:00,
2013-10-28 17:29:00,56.5,15.9,30.00,SW,229,0.0,8.1,20,0.00,,---,0.00,VWS V12.07,2013-10-28 21:29:00,
2013-10-28 17:35:00,55.9,15.5,30.00,NNW,330,0.0,5.4,20,0.00,,---,0.00,VWS V12.07,2013-10-28 21:35:00,
2013-10-28 17:41:00,55.4,15.0,30.03,South,190,0.0,5.4,20,0.00,,---,0.00,VWS V12.07,2013-10-28 21:41:00,
2013-10-28 17:47:00,54.9,14.6,30.03,SSW,200,3.1,5.4,20,0.00,,---,0.00,VWS V12.07,2013-10-28 21:47:00,
2013-10-28 17:53:00,54.5,14.3,30.03,WNW,286,5.8,6.3,20,0.00,,---,0.00,VWS V12.07,2013-10-28 21:53:00,
2013-10-28 17:59:00,54.1,14.0,30.03,NW,321,2.7,6.3,20,0.00,,---,0.00,VWS V12.07,2013-10-28 21:59:00,
2013-10-28 18:05:00,53.8,13.7,30.03,WNW,297,0.0,6.3,20,0.00,,---,0.00,VWS V12.07,2013-10-28 22:05:00,
2013-10-28 18:11:00,53.4,14.5,30.03,SE,142,0.0,6.3,21,0.00,,---,0.00,VWS V12.07,2013-10-28 22:11:00,
2013-10-28 18:18:00,53.1,14.2,30.03,ESE,107,0.0,2.7,21,0.00,,---,0.00,VWS V12.07,2013-10-28 22:18:00,
2013-10-28 18:24:00,52.7,13.9,30.03,East,89,0.0,3.1,21,0.00,,---,0.00,VWS V12.07,2013-10-28 22:24:00,
2013-10-28 18:30:00,52.3,13.6,30.06,ENE,57,0.0,0.0,21,0.00,,---,0.00,VWS V12.07,2013-10-28 22:30:00,
2013-10-28 18:38:00,51.6,13.0,30.06,WNW,300,0.0,4.9,21,0.00,,---,0.00,VWS V12.07,2013-10-28 22:38:00,
2013-10-28 18:44:00,51.3,12.7,30.06,ESE,102,0.0,4.9,21,0.00,,---,0.00,VWS V12.07,2013-10-28 22:44:00,
2013-10-28 18:50:00,50.7,12.2,30.06,North,9,0.0,3.1,21,0.00,,---,0.00,VWS V12.07,2013-10-28 22:50:00,
2013-10-28 18:56:00,50.2,11.8,30.09,NE,51,0.0,3.1,21,0.00,,---,0.00,VWS V12.07,2013-10-28 22:56:00,
2013-10-28 19:02:00,49.8,11.5,30.09,ESE,108,0.0,0.0,21,0.00,,---,0.00,VWS V12.07,2013-10-28 23:02:00,
2013-10-28 19:08:00,49.5,11.2,30.09,SE,145,0.0,3.1,21,0.00,,---,0.00,VWS V12.07,2013-10-28 23:08:00,
2013-10-28 19:14:00,49.1,10.9,30.09,SE,130,0.0,3.1,21,0.00,,---,0.00,VWS V12.07,2013-10-28 23:14:00,
2013-10-28 19:20:00,48.7,10.6,30.09,ESE,112,0.0,0.0,21,0.00,,---,0.00,VWS V12.07,2013-10-28 23:20:00,
2013-10-28 19:26:00,48.6,10.4,30.09,WNW,297,5.4,5.4,21,0.00,,---,0.00,VWS V12.07,2013-10-28 23:26:00,
2013-10-28 19:32:00,48.4,10.3,30.09,North,2,0.0,0.0,21,0.00,,---,0.00,VWS V12.07,2013-10-28 23:32:00,
2013-10-28 19:38:00,48.2,10.1,30.09,SSE,157,0.0,3.1,21,0.00,,---,0.00,VWS V12.07,2013-10-28 23:38:00,
2013-10-28 19:44:00,48.0,11.0,30.12,SE,126,0.0,3.1,22,0.00,,---,0.00,VWS V12.07,2013-10-28 23:44:00,
2013-10-28 19:52:00,47.7,10.7,30.12,SE,127,0.0,3.6,22,0.00,,---,0.00,VWS V12.07,2013-10-28 23:52:00,
2013-10-28 19:58:00,47.5,10.6,30.12,WSW,243,0.0,3.6,22,0.00,,---,0.00,VWS V12.07,2013-10-28 23:58:00,
2013-10-28 20:04:00,47.3,10.4,30.12,NW,318,0.0,4.0,22,0.00,,---,0.00,VWS V12.07,2013-10-29 00:04:00,
2013-10-28 20:10:00,47.3,10.4,30.12,NW,314,0.0,4.0,22,0.00,,---,0.00,VWS V12.07,2013-10-29 00:10:00,
2013-10-28 20:16:00,47.1,10.2,30.12,North,353,0.0,0.0,22,0.00,,---,0.00,VWS V12.07,2013-10-29 00:16:00,
2013-10-28 20:22:00,46.9,10.1,30.12,North,7,0.0,0.0,22,0.00,,---,0.00,VWS V12.07,2013-10-29 00:22:00,
2013-10-28 20:28:00,46.8,9.9,30.12,ESE,102,0.0,0.0,22,0.00,,---,0.00,VWS V12.07,2013-10-29 00:28:00,
2013-10-28 20:34:00,46.6,9.8,30.12,SE,145,0.0,3.1,22,0.00,,---,0.00,VWS V12.07,2013-10-29 00:34:00,
2013-10-28 20:40:00,46.4,9.6,30.12,NW,326,0.0,3.1,22,0.00,,---,0.00,VWS V12.07,2013-10-29 00:40:00,
2013-10-28 20:46:00,46.4,9.6,30.12,East,82,0.0,2.2,22,0.00,,---,0.00,VWS V12.07,2013-10-29 00:46:00,
2013-10-28 20:52:00,46.2,9.5,30.12,South,187,0.0,2.7,22,0.00,,---,0.00,VWS V12.07,2013-10-29 00:52:00,
2013-10-28 20:58:00,46.0,9.3,30.15,WSW,249,3.6,3.6,22,0.00,,---,0.00,VWS V12.07,2013-10-29 00:58:00,
2013-10-28 21:04:00,45.9,9.2,30.15,WNW,290,2.7,3.1,22,0.00,,---,0.00,VWS V12.07,2013-10-29 01:04:00,
2013-10-28 21:10:00,45.7,9.0,30.15,NW,321,0.0,3.6,22,0.00,,---,0.00,VWS V12.07,2013-10-29 01:10:00,
2013-10-28 21:16:00,45.3,8.7,30.15,West,278,0.0,2.2,22,0.00,,---,0.00,VWS V12.07,2013-10-29 01:16:00,
2013-10-28 21:22:00,45.1,8.6,30.15,SSW,203,0.0,3.6,22,0.00,,---,0.00,VWS V12.07,2013-10-29 01:22:00,
2013-10-28 21:28:00,45.0,8.4,30.15,SSE,157,2.2,5.4,22,0.00,,---,0.00,VWS V12.07,2013-10-29 01:28:00,
2013-10-28 21:34:00,44.8,8.3,30.15,SSE,151,0.0,0.0,22,0.00,,---,0.00,VWS V12.07,2013-10-29 01:34:00,
2013-10-28 21:40:00,44.6,8.1,30.15,WNW,296,0.0,3.1,22,0.00,,---,0.00,VWS V12.07,2013-10-29 01:40:00,
2013-10-28 21:46:00,44.4,8.9,30.15,SE,126,0.0,0.0,23,0.00,,---,0.00,VWS V12.07,2013-10-29 01:46:00,
2013-10-28 21:52:00,44.2,8.8,30.15,WSW,252,0.0,2.7,23,0.00,,---,0.00,VWS V12.07,2013-10-29 01:52:00,
2013-10-28 21:58:00,44.1,8.6,30.18,South,186,0.0,2.7,23,0.00,,---,0.00,VWS V12.07,2013-10-29 01:58:00,
2013-10-28 22:04:00,43.9,8.5,30.18,NNW,333,2.2,5.4,23,0.00,,---,0.00,VWS V12.07,2013-10-29 02:04:00,
2013-10-28 22:10:00,43.7,8.3,30.18,South,176,0.0,5.4,23,0.00,,---,0.00,VWS V12.07,2013-10-29 02:10:00,
2013-10-28 22:16:00,43.5,8.2,30.18,ESE,123,0.0,0.0,23,0.00,,---,0.00,VWS V12.07,2013-10-29 02:16:00,
2013-10-28 22:22:00,43.5,8.2,30.18,South,170,0.0,4.9,23,0.00,,---,0.00,VWS V12.07,2013-10-29 02:22:00,
2013-10-28 22:28:00,43.3,8.0,30.18,SE,128,0.0,4.9,23,0.00,,---,0.00,VWS V12.07,2013-10-29 02:28:00,
2013-10-28 22:34:00,43.2,7.9,30.18,East,89,0.0,0.0,23,0.00,,---,0.00,VWS V12.07,2013-10-29 02:34:00,
2013-10-28 22:40:00,43.0,7.7,30.18,East,90,0.0,0.0,23,0.00,,---,0.00,VWS V12.07,2013-10-29 02:40:00,
2013-10-28 22:46:00,42.8,7.6,30.18,East,90,0.0,0.0,23,0.00,,---,0.00,VWS V12.07,2013-10-29 02:46:00,
2013-10-28 22:52:00,42.6,7.4,30.18,East,90,0.0,0.0,23,0.00,,---,0.00,VWS V12.07,2013-10-29 02:52:00,
2013-10-28 22:58:00,42.3,7.1,30.18,East,90,0.0,0.0,23,0.00,,---,0.00,VWS V12.07,2013-10-29 02:58:00,
2013-10-28 23:04:00,42.1,7.0,30.18,NNW,330,0.0,5.4,23,0.00,,---,0.00,VWS V12.07,2013-10-29 03:04:00,
2013-10-28 23:09:00,41.9,6.8,30.18,WSW,237,0.0,5.4,23,0.00,,---,0.00,VWS V12.07,2013-10-29 03:09:00,
2013-10-28 23:15:00,41.7,6.7,30.18,WNW,297,0.0,0.0,23,0.00,,---,0.00,VWS V12.07,2013-10-29 03:15:00,
2013-10-28 23:20:00,41.5,6.5,30.18,WSW,250,0.0,3.6,23,0.00,,---,0.00,VWS V12.07,2013-10-29 03:20:00,
2013-10-28 23:26:00,41.4,6.4,30.18,East,94,0.0,3.6,23,0.00,,---,0.00,VWS V12.07,2013-10-29 03:26:00,
2013-10-28 23:33:00,41.2,6.2,30.18,SSW,202,0.0,0.0,23,0.00,,---,0.00,VWS V12.07,2013-10-29 03:33:00,
2013-10-28 23:39:00,41.2,6.2,30.18,SSW,202,0.0,0.0,23,0.00,,---,0.00,VWS V12.07,2013-10-29 03:39:00,
2013-10-28 23:45:00,41.0,6.1,30.18,SW,225,0.0,0.0,23,0.00,,---,0.00,VWS V12.07,2013-10-29 03:45:00,
2013-10-28 23:51:00,40.8,5.9,30.18,SSE,148,0.0,0.0,23,0.00,,---,0.00,VWS V12.07,2013-10-29 03:51:00,
2013-10-28 23:57:00,40.8,5.9,30.18,SSE,148,0.0,0.0,23,0.00,,---,0.00,VWS V12.07,2013-10-29 03:57:00,